Flag Weather past 2 weeks in Freising, Bavaria, Germany

Now
50 °F

Fog.


Feels Like: 50 °F
Forecast: 40 / 55 °F
Wind: 2 mph from West

Location: Muenchen Flughafen

Current Time: Oct 30, 2014 at 3:44:31 PM

Latest Report: Oct 30, 2014 at 3:00 PM


Visibility: 4 mi

Pressure: 30.31 "Hg

Humidity: 94%

Dew point: 48 °F

Location of FreisingLocation

Historic Weather in Freising — Graph

°F

Freising temperature yesterday

Maximum temperature yesterday: 55 °F (at 3:00 PM)
Minimum temperature yesterday: 39 °F (at 9:00 PM)
Average temperature yesterday: 45 °F

Past Weeks' High & Low Weather Summary

 TemperatureHumidityPressure
High74 °F (Oct 19, 4:00 PM)100% (Oct 18, 12:00 AM)30.41 "Hg (Oct 18, 12:00 AM)
Low33 °F (Oct 25, 8:00 AM)50% (Oct 19, 3:00 PM)29.62 "Hg (Oct 21, 9:00 PM)
Average49 °F88%30.13 "Hg
* Reported Oct 15 3:00 PM — Oct 30 2:00 PM, Freising, Weather by CustomWeather, © 2014

Note: Actual official high and low records may vary slightly from our data, if they occured in-between our weather recording intervals... More about our weather records

Advertising

Freising weather history for previous 24 hours

 ConditionsComfort  
Time TempWeatherWind HumidityBarometerVisibility
2:00 PM
Oct 30
50 °FLow clouds.3 mph94%30.31 "Hg4 mi
1:00 PM49 °FDrizzle. Low clouds.5 mph95%30.30 "Hg2 mi
12:00 PM49 °FDrizzle. Low clouds.5 mph95%30.30 "Hg2 mi
11:00 AM48 °FDrizzle. Low clouds.5 mph96%30.30 "Hg2 mi
10:00 AM46 °FDrizzle. Overcast.5 mph96%30.30 "Hg2 mi
9:00 AM46 °FDrizzle. Overcast.3 mph93%30.29 "Hg4 mi
8:00 AM46 °FFog.3 mph93%30.28 "Hg2 mi
7:00 AM45 °FFog.3 mph96%30.26 "Hg2 mi
6:00 AM43 °FFog.1 mph98%30.24 "Hg1 mi
5:00 AM43 °FFog.2 mph100%30.25 "Hg1 mi
4:00 AM42 °FFog.2 mph100%30.24 "Hg1 mi
3:00 AM36 °FFog.2 mph100%30.26 "Hg1 mi
2:00 AM36 °FFog.2 mph98%30.25 "Hg2 mi
1:00 AM35 °FFog.2 mph98%30.24 "Hg3 mi
12:00 AM39 °FOvercast.2 mph98%30.22 "Hg5 mi
11:00 PM
Oct 29
40 °FOvercast.1 mph96%30.21 "Hg6 mi
10:00 PM40 °FOvercast.1 mph97%30.20 "Hg6 mi
9:00 PM39 °FFog.2 mph98%30.19 "Hg6 mi
8:00 PM40 °FFog.1 mph98%30.17 "Hg7 mi
7:00 PM40 °FClear.1 mph95%30.16 "Hg7 mi
6:00 PM47 °FPassing clouds.1 mph86%30.12 "Hg9 mi
5:00 PM52 °FPassing clouds.2 mph73%30.09 "Hg11 mi
4:00 PM54 °FPassing clouds.3 mph71%30.08 "Hg12 mi
3:00 PM55 °FPartly sunny.2 mph69%30.07 "Hg12 mi
Weather by CustomWeather, © 2014

See weather overviewHow to use our weather pages